This demonstration page uses our WeatherBlox Daily Observations layout. Learn more.

Left ArrowRight Arrow

Hourly Observations for June 30, 2022

Temp ( °F °C ) Dew Point ( °F °C ) Humidity (%) Winds ( mph kmh ) Pressure ( in mb ) Visibility ( mi km ) Precip ( " mm )
12:15 am 00:15 Clear 76 24.5 55 12.8 48 48 S 17 28 29.86 1011 10 16 0.00 0.00
12:35 am 00:35 Clear 76 24.2 55 12.8 49 49 S 16 26 29.87 1012 10 16 0.00 0.00
12:55 am 00:55 Clear 75 24.1 55 12.8 49 49 S 17 28 29.86 1011 10 16 0.00 0.00
1:15 am 01:15 Clear 75 24.1 55 12.7 49 49 S 17 28 29.86 1011 10 16 0.00 0.00
1:35 am 01:35 Clear 74 23.6 55 12.6 50 50 S 17 28 29.86 1011 10 16 0.00 0.00
1:55 am 01:55 Clear 74 23.6 55 12.5 50 50 SSW 17 28 29.87 1011 10 16 0.00 0.00
2:15 am 02:15 Clear 74 23.4 54 12.3 50 50 S 17 28 29.87 1011 10 16 0.00 0.00
2:35 am 02:35 Clear 74 23.2 55 12.5 51 51 SSW 14 22 29.88 1012 10 16 0.00 0.00
2:55 am 02:55 Clear 73 23 54 12.4 51 51 SSW 15 24 29.88 1012 10 16 0.00 0.00
3:15 am 03:15 Clear 73 22.5 54 12.2 52 52 SSW 13 20 29.90 1012 10 16 0.00 0.00
3:35 am 03:35 Clear 72 22 53 11.9 53 53 S 13 20 29.88 1012 10 16 0.00 0.00
3:55 am 03:55 Clear 72 22 53 11.8 52 52 S 12 19 29.87 1012 10 16 0.00 0.00
4:15 am 04:15 Clear 71 21.8 53 11.6 52 52 S 13 20 29.86 1011 10 16 0.00 0.00
4:35 am 04:35 Clear 71 21.5 53 11.7 54 54 S 14 22 29.87 1011 10 16 0.00 0.00
4:55 am 04:55 Clear 70 21 53 11.8 56 56 S 15 24 29.85 1011 10 16 0.00 0.00
5:15 am 05:15 Clear 70 21 54 12 57 57 S 14 22 29.84 1010 10 16 0.00 0.00
5:35 am 05:35 Clear 70 21 54 12.2 57 57 S 16 26 29.84 1010 10 16 0.00 0.00
5:55 am 05:55 Clear 69 20.7 55 12.5 60 60 S 17 28 29.83 1010 10 16 0.00 0.00
6:15 am 06:15 Sunny 69 20.3 55 12.7 62 62 S 16 26 29.83 1010 10 16 0.00 0.00
6:35 am 06:35 Sunny 69 20.5 55 12.6 61 61 SSW 13 20 29.84 1011 10 16 0.00 0.00
6:55 am 06:55 Sunny 69 20.8 55 12.5 59 59 SSW 12 19 29.85 1011 10 16 0.00 0.00
7:15 am 07:15 Sunny 69 20.8 55 12.7 60 60 SSW 7 11 29.85 1011 10 16 0.00 0.00
7:35 am 07:35 Sunny 71 21.4 55 12.8 58 58 SSW 12 19 29.85 1011 10 16 0.00 0.00
7:55 am 07:55 Sunny 72 22 55 13 57 57 SSW 14 22 29.84 1011 10 16 0.00 0.00
8:15 am 08:15 Sunny 73 22.6 56 13.2 55 55 SSW 13 20 29.84 1010 10 16 0.00 0.00
8:35 am 08:35 Sunny 74 23.5 56 13.5 54 54 SSW 13 20 29.83 1010 10 16 0.00 0.00
8:55 am 08:55 Sunny 74 23.3 56 13.5 54 54 SSW 12 19 29.83 1010 10 16 0.00 0.00
9:15 am 09:15 Sunny 76 24.2 57 14 53 53 SSW 12 19 29.81 1010 10 16 0.00 0.00
9:35 am 09:35 Sunny 77 25.1 58 14.5 52 52 SW 12 19 29.81 1009 10 16 0.00 0.00
9:55 am 09:55 Sunny 79 26.2 58 14.3 48 48 SW 12 19 29.79 1009 10 16 0.00 0.00
10:15 am 10:15 Sunny 80 26.7 57 14 46 46 SW 15 24 29.78 1009 10 16 0.00 0.00
10:35 am 10:35 Sunny 82 27.9 58 14.5 44 44 SW 10 17 29.77 1008 10 16 0.00 0.00
10:55 am 10:55 Sunny 83 28.4 58 14.7 43 43 SW 10 17 29.77 1008 10 16 0.00 0.00
11:15 am 11:15 Sunny 85 29.7 59 15.2 41 41 WSW 10 17 29.76 1008 10 16 0.00 0.00
11:35 am 11:35 Sunny 86 30.1 59 14.8 39 39 SW 10 17 29.76 1008 10 16 0.00 0.00
11:55 am 11:55 Sunny 87 30.5 59 15.1 39 39 WSW 9 15 29.74 1007 10 16 0.00 0.00
12:15 pm 12:15 Sunny 88 31.1 59 15 38 38 WSW 6 9 29.74 1007 10 16 0.00 0.00
12:35 pm 12:35 Sunny 89 31.6 59 15 37 37 W 3 6 29.74 1007 10 16 0.00 0.00
12:55 pm 12:55 Sunny 90 32.2 59 15 35 35 WSW 3 6 29.73 1007 10 16 0.00 0.00
1:15 pm 13:15 Sunny 91 32.7 59 14.9 34 34 W 5 7 29.73 1007 10 16 0.00 0.00
1:35 pm 13:35 Sunny 91 32.9 59 14.9 34 34 N 3 6 29.73 1007 10 16 0.00 0.00
1:55 pm 13:55 Sunny 92 33.3 60 15.3 34 34 NNW 3 6 29.72 1007 10 16 0.00 0.00
2:15 pm 14:15 Sunny 92 33.4 58 14.7 32 32 Calm 29.72 1007 10 16 0.00 0.00
2:35 pm 14:35 Sunny 91 33 58 14.5 33 33 Calm 29.72 1006 10 16 0.00 0.00
2:55 pm 14:55 Sunny 91 33 59 15.2 34 34 NNW 3 6 29.72 1006 10 16 0.00 0.00
3:15 pm 15:15 Partly Cloudy 88 31.2 67 19.2 49 49 NE 5 7 29.73 1007 10 16 0.00 0.00
3:35 pm 15:35 Partly Cloudy 89 31.8 65 18.4 45 45 ENE 6 9 29.72 1007 10 16 0.00 0.00
3:55 pm 15:55 Sunny 89 31.7 66 19 47 47 ENE 6 9 29.73 1007 10 16 0.00 0.00
4:15 pm 16:15 Sunny 92 33.1 64 17.5 39 39 NE 7 11 29.71 1006 10 16 0.00 0.00
4:35 pm 16:35 Sunny 92 33.6 65 18.1 40 40 ENE 7 11 29.71 1006 10 16 0.00 0.00
4:55 pm 16:55 Sunny 92 33.3 62 16.9 37 37 NNE 5 7 29.71 1006 10 16 0.00 0.00
5:15 pm 17:15 Sunny 92 33.1 64 17.6 40 40 N 6 9 29.72 1007 10 16 0.00 0.00
5:35 pm 17:35 Sunny 90 32.4 68 19.9 48 48 NNE 7 11 29.73 1007 10 16 0.00 0.00
5:55 pm 17:55 Sunny 89 31.9 68 19.9 49 49 NNE 6 9 29.72 1007 10 16 0.00 0.00
6:15 pm 18:15 Sunny 89 31.7 68 19.9 50 50 ENE 3 6 29.73 1007 10 16 0.00 0.00
6:35 pm 18:35 Sunny 90 32.4 65 18.6 44 44 NE 3 6 29.71 1006 10 16 0.00 0.00
6:55 pm 18:55 Sunny 91 33 64 17.9 41 41 Calm 29.71 1006 10 16 0.00 0.00
7:15 pm 19:15 Sunny 91 32.5 65 18.6 44 44 Calm 29.71 1006 10 16 0.00 0.00
7:35 pm 19:35 Sunny 92 33.5 61 15.9 35 35 N 3 6 29.70 1006 10 16 0.00 0.00
7:55 pm 19:55 Sunny 89 31.6 68 19.8 50 50 NE 5 7 29.72 1006 10 16 0.00 0.00
8:15 pm 20:15 Sunny 87 30.5 70 21 57 57 N 9 15 29.73 1007 10 16 0.00 0.00
8:35 pm 20:35 Sunny 84 28.8 69 20.5 61 61 N 10 17 29.75 1007 10 16 0.00 0.00
8:55 pm 20:55 Sunny 83 28.6 64 17.6 51 51 NE 14 22 29.76 1008 10 16 0.00 0.00
9:15 pm 21:15 Clear 83 28.1 64 17.6 53 53 NE 12 19 29.77 1008 10 16 0.00 0.00
9:35 pm 21:35 Clear 82 27.6 64 17.9 56 56 NE 13 20 29.79 1009 10 16 0.00 0.00
9:55 pm 21:55 Clear 81 27.4 64 17.9 56 56 E 7 11 29.82 1010 10 16 0.00 0.00
10:15 pm 22:15 Clear with Light Rain 79 26.2 65 18.4 62 62 E 6 9 29.84 1010 10 16 0.00 0.00
10:35 pm 22:35 Clear 79 26.3 64 18 60 60 ENE 10 17 29.85 1011 10 16 0.00 0.00
10:55 pm 22:55 Clear 79 26.1 64 18 61 61 NE 10 17 29.87 1011 10 16 0.00 0.00
11:15 pm 23:15 Partly Cloudy 79 26.1 62 16.8 57 57 E 13 20 29.86 1011 10 16 0.00 0.00
11:35 pm 23:35 Clear 78 25.5 61 16.1 56 56 E 8 13 29.88 1012 10 16 0.00 0.00
11:55 pm 23:55 Partly Cloudy 77 25.1 61 16 57 57 NE 9 15 29.89 1012 10 16 0.00 0.00

Powered by AerisWeather